Location: Bastrop State Park
(30.1090°N, 97.2819°W)
Time: 19:13:51
(UTC-05:00)

ISS - Visible Passes

Search period start: 17 April 2014 00:00
Search period end: 27 April 2014 00:00
Orbit: 414 x 419 km, 51.6° (Epoch: 17 April)

Date Brightness Start Highest point End Pass type
(mag) Time Alt. Az. Time Alt. Az. Time Alt. Az.
20 Apr -0.4 22:05:30 10° N 22:06:10 13° N 22:06:10 13° N visible
21 Apr -0.7 21:18:22 10° NNE 21:19:11 11° NNE 21:19:43 10° NE visible
22 Apr -1.2 22:04:31 10° NW 22:06:11 26° NNW 22:06:11 26° NNW visible
23 Apr -2.0 21:16:18 10° NNW 21:19:13 27° NE 21:19:46 26° ENE visible
24 Apr -1.1 20:28:21 10° N 20:30:32 16° NE 20:32:42 10° ENE visible
24 Apr -1.4 22:04:14 10° WNW 22:06:17 28° W 22:06:17 28° W visible
25 Apr -3.3 21:15:29 10° NW 21:18:49 82° SW 21:19:56 39° SE visible
26 Apr -2.8 20:26:57 10° NNW 20:30:11 46° NE 20:33:25 10° ESE visible
26 Apr -0.3 22:06:05 10° WSW 22:06:32 10° SW 22:06:33 10° SW visible
